SCP
0 0 0 0 0 0 0 0 0 0 0 0 0 0 0 0 0 0 0 0 0 0 0 0 0 0 0 0 0 0 0 0 0 0 0 0 0 0 0 0 0 -0 0
0 0 0 0 0 0 0 0 0 0 0 0 0 0 0 0 0 0 0 0 0 0 0 0 0 0 0 0 0 0 0 0 0 0 0 0 0 0 0 0 0 0 0
0 0 0 0 0 0 0 0 0 0 0 0 0 0 0 0 0 0 0 0 0 0 0 0 0 0 0 0 0 0 0 0 0 0 0 0 0 0 0 0 0 0 0
0 0 0 0 0 0 0 0 0 0 0 0 0 0 0 0 0 0 0 0 0 0 0 0 0 0 0 0 0 0 0 0 0 0 0 0 0 0 0 0 0 0 0
0 0 0 0 0 0 0 0 0 0 0 0 0 0 0 0 0 0 0 0 0 0 0 0 0 0 0 0 0 0 0 0 0 0 0 0 0 0 0 0 0 0 0
0 0 0 0 0 0 0 0 0 0 0 0 0 0 0 0 0 0 0 0 0 0 0 0 0 0 0 0 0 0 0 0 0 0 0 0 0 0 0 0 0 0 0
0 0 0 0 0 0 0 0 0 0 0 0 0 0 0 0 0 0 0 0 0 0 0 0 0 0 0 0 0 0 0 0 0 0 0 0 0 0 0 0 0 0 0
0 0 0 0 0 0 0 0 0 0 0 0 0 0 0 0 0 0 0 0 0 0 0 0 0 0 0 0 0 0 0 0 0 0 0 0 0 0 0 0 0 0 0
0 0 0 0 0 0 0 0 0 0 0 0 0 0 0 0 0 0 0 0 0 0 0 0 0 0 0 0 0 0 0 0 0 0 0 0 0 0 0 0 0 0 0
0 0 0 0 0 0 0 0 0 0 0 0 0 0 0 0 0 0 0 0 0 0 0 0 0 0 0 0 0 0 0 0 0 0 0 0 0 0 0 0 0 0 0
0 0 0 0 0 0 0 0 0 0 0 0 0 0 0 0 0 0 0 0 0 0 0 0 0 0 0 0 0 0 0 0 0 0 0 0 0 0 0 0 0 0 0
0 0 0 0 0 0 0 0 0 0 0 0 0 0 0 0 0 0 0 0 0 0 0 0 0 0 0 0 0 0 0 0 0 0 0 0 0 0 0 0 0 0 0
0 0 0 0 0 0 0 0 0 0 0 0 0 0 0 0 0 0 0 0 0 0 0 0 0 0 0 0 0 0 0 0 0 0 0 0 0 0 0 0 0 0 0
0 0 0 0 0 0 0 0 0 0 0 0 0 0 0 0 0 0 0 0 0 0 0 0 0 0 0 0 0 0 0 0 0 0 0 0 0 0 0 0 0 0 0
0 0 0 0 0 0 0 0 0 0 0 0 0 0 0 0 0 0 0 0 0 0 0 0 0 0 0 0 0 0 0 0 0 0 0 0 0 0 0 0 0 0 0
0 0 0 0 0 0 0 0 0 0 0 0 0 0 0 0 0 0 0 0 0 0 0 0 0 0 0 0 0 0 0 0 0 0 0 0 0 0 0 0 0 0 0
0 0 0 0 0 0 0 0 0 0 0 0 0 0 0 0 0 0 0 0 0 0 0 0 0 0 0 0 0 0 0 0 0 0 0 0 0 0 0 0 0 0 0
0 0 0 0 0 0 0 0 0 0 0 0 0 0 0 0 0 0 0 0 0 0 0 0 0 0 0 0 0 0 0 0 0 0 0 0 0 0 0 0 0 0 0
0 0 0 0 0 0 0 0 0 0 0 0 0 0 0 0 0 0 0 0 0 0 0 0 0 0 0 0 0 0 0 0 0 0 0 0 0 0 0 0 0 0 0
0 0 0 0 0 0 0 0 0 0 0 0 0 0 0 0 0 0 0 0 0 0 0 0 0 0 0 0 0 0 0 0 0 0 0 0 0 0 0 0 0 0 0
0 0 0 0 0 0 0 0 0 0 0 0 0 0 0 0 0 0 0 0 0 0 0 0 0 0 0 0 0 0 0 0 0 0 0 0 0 0 0 0 0 0 0
0 0 0 0 0 0 0 0 0 0 0 0 0 0 0 0 0 0 0 0 0 0 0 0 0 0 0 0 0 0 0 0 0 0 0 0 0 0 0 0 0 0 0
0 0 0 0 0 0 0 0 0 0 0 0 0 0 0 0 0 0 0 0 0 0 0 0 0 0 0 0 0 0 0 0 0 0 0 0 0 -0 0 0 0 0 0
0 0 0 0 0 0 0 0 0 0 0 0 0 0 0 0 0 0 0 0 0 0 0 0 0 0 0 0 0 0 0 0 0 0 -0 0 -0 -0 0 0 0 0 0
0 0 0 0 0 0 0 0 0 0 0 0 0 0 0 0 0 0 0 0 0 0 0 0 0 0 0 0 0 0 0 0 -0 -0 -0 -0 -0 -0 -0 -0 -0 -0 -0
0 0 0 0 0 0 0 0 0 0 0 0 0 0 0 0 0 0 0 0 0 0 0 0 0 0 0 0 0 -0 0 0 -0 -0 -0 -0 0 -0 -0 -0 -0 -0 -0
Wind_Speed_500mb
80 78 80 83 78 72 66 60 54 50 45 39 32 27 22 16 11 6 3 2 3 4 7 11 15 19 23 27 32 35 38 44 56 67 68 73 75 78 81 85 89 89 85
85 83 83 84 81 75 68 61 57 52 47 40 35 31 25 20 16 10 5 3 4 5 8 12 16 20 26 30 35 38 42 46 53 64 68 73 74 79 84 88 90 92 94
87 86 86 85 82 76 68 63 59 54 48 45 39 34 29 23 18 13 9 8 8 10 13 16 19 25 30 34 38 42 46 48 50 59 67 69 75 80 86 89 94 96 95
88 88 88 87 83 78 72 67 62 56 51 46 41 38 32 27 22 17 15 14 14 17 19 23 26 32 35 38 42 46 49 49 51 56 63 69 75 80 83 87 98 95 100
89 90 89 85 82 77 73 68 62 57 52 48 45 42 37 32 25 21 22 21 22 25 27 31 33 37 40 44 47 49 50 50 52 56 61 66 74 79 79 81 88 97 99
91 90 88 85 81 78 73 68 63 59 56 52 48 44 40 35 29 25 28 28 30 33 36 37 38 43 44 47 50 51 51 52 53 56 56 63 70 70 71 76 78 95 107
96 93 89 85 82 79 74 69 66 62 58 53 50 49 44 39 33 30 33 34 35 39 40 41 46 47 48 51 52 53 54 53 53 49 55 59 67 61 66 76 79 84 93
95 92 88 86 84 79 74 72 68 63 56 53 51 55 49 42 39 36 39 37 39 40 43 47 51 52 52 55 57 58 58 57 55 55 56 63 56 55 61 65 73 80 87
96 94 90 86 82 79 79 72 64 61 60 60 61 60 52 45 43 42 44 44 42 43 47 51 54 57 55 56 62 64 63 62 58 57 60 61 55 55 55 63 66 74 85
91 88 85 81 79 83 76 67 63 61 67 64 67 62 55 49 47 49 50 53 53 51 52 55 57 60 60 60 63 62 65 63 61 69 69 64 58 56 53 53 58 66 70
70 74 80 79 81 74 69 65 77 65 64 70 65 61 56 54 54 54 56 61 60 58 60 63 63 59 63 64 62 60 64 59 64 69 73 67 62 58 55 53 51 57 64
49 51 53 65 71 67 75 74 61 64 71 65 64 60 58 61 60 60 60 60 60 65 69 69 67 64 67 68 58 58 51 60 71 74 75 69 63 60 57 55 54 55 57
31 38 48 61 70 67 60 60 58 61 63 62 59 59 59 61 61 59 58 58 61 65 69 73 73 72 69 62 52 54 61 71 77 73 71 66 61 58 56 56 56 55 60
40 45 49 52 53 53 54 53 54 54 53 53 54 55 56 58 59 58 59 61 62 63 66 69 69 67 67 64 69 68 69 69 68 68 67 65 62 57 54 53 59 57 62
34 37 41 44 44 43 44 43 43 44 46 48 50 54 58 60 55 58 59 58 59 60 63 70 71 69 71 71 68 70 68 69 69 64 64 65 62 56 53 50 53 54 54
34 36 37 38 39 40 40 41 42 44 47 50 52 53 51 54 53 53 50 41 38 41 51 69 77 75 74 69 68 71 71 67 65 62 62 59 59 55 52 48 48 48 50
32 33 35 37 37 38 40 42 44 44 46 47 49 48 45 43 45 47 50 52 45 49 61 73 76 73 70 66 60 59 66 60 59 60 60 57 55 52 49 47 45 44 45
35 36 36 36 38 40 41 41 39 38 37 36 36 36 40 45 51 56 60 65 65 62 66 74 79 80 82 75 64 57 63 60 56 57 58 54 49 48 46 42 40 40 40
37 37 38 39 40 38 36 34 33 31 30 31 33 40 43 47 51 54 56 58 61 63 62 63 63 66 66 67 67 57 53 51 52 54 53 51 45 45 42 38 37 32 33
35 36 34 31 30 28 27 26 26 28 32 34 36 36 38 46 48 49 51 54 55 56 57 57 57 56 52 45 45 50 57 56 55 52 49 47 42 41 39 36 32 29 27
29 28 26 26 25 24 25 26 27 28 29 30 33 35 39 47 48 49 49 48 50 49 48 47 48 49 44 42 42 43 43 42 43 44 44 42 40 38 35 34 30 24 23
26 25 24 23 23 23 25 26 26 27 27 29 32 35 39 41 43 43 42 41 41 43 44 46 46 45 44 45 47 45 40 40 39 39 40 39 36 35 33 33 28 23 21
23 23 24 25 25 25 24 24 24 25 28 31 33 34 36 36 35 35 37 37 38 39 39 40 42 39 37 36 35 37 38 36 36 37 38 38 35 34 34 34 28 24 21
25 25 24 24 23 23 23 23 24 27 29 30 30 30 30 30 31 33 35 35 35 36 36 38 39 39 37 36 35 35 37 36 36 36 37 35 34 33 34 36 30 26 26
25 25 25 24 23 23 24 26 28 28 27 26 27 27 28 31 32 33 34 36 37 36 34 34 35 36 35 35 35 35 35 35 36 34 34 36 36 35 35 35 34 31 29
25 25 25 25 26 27 29 28 27 27 26 26 26 27 29 30 30 31 32 34 36 36 33 32 34 34 35 34 34 35 35 35 34 35 37 38 39 38 37 37 34 38 37
Wind_Direction_500mb
210 204 197 193 191 190 189 188 188 187 187 185 183 185 187 191 200 212 232 326 332 333 339 340 332 324 317 314 314 315 316 317 317 319 324 326 327 328 330 330 331 330 329
209 203 197 195 193 193 192 191 191 193 190 191 191 191 195 202 207 214 236 266 275 296 320 326 324 316 310 311 309 310 313 314 314 316 320 325 327 329 330 329 330 329 330
205 201 198 197 196 196 196 195 196 196 196 195 196 200 204 209 214 223 237 249 255 280 300 304 306 310 309 306 306 308 308 307 308 311 318 324 326 330 329 332 331 330 328
204 202 201 201 201 200 200 200 201 200 202 201 202 207 210 213 219 232 242 243 262 277 284 290 299 303 303 305 304 304 303 301 305 310 316 321 326 331 333 329 327 328 327
206 205 205 205 204 204 203 204 203 204 205 207 209 213 216 219 224 237 245 253 262 271 279 284 290 297 302 302 301 300 299 299 304 308 313 319 326 328 328 328 325 326 324
208 209 209 209 207 206 206 206 206 208 209 211 216 221 225 224 228 244 248 256 263 271 276 279 287 293 295 297 296 296 296 298 300 305 308 315 319 321 324 323 321 319 320
211 211 212 212 211 210 209 209 211 214 216 220 222 230 230 232 239 248 252 258 267 271 273 280 283 288 292 293 292 293 293 291 292 296 300 307 314 321 321 318 318 317 315
215 215 215 214 214 213 213 215 216 219 224 225 243 238 232 235 245 252 256 262 266 272 277 279 283 288 292 293 294 292 290 287 290 297 302 308 310 311 309 311 313 313 312
218 219 218 218 218 222 219 218 222 226 232 238 242 236 238 241 249 254 257 262 268 273 276 278 283 287 292 291 290 291 290 290 293 293 293 298 301 309 310 310 314 315 318
223 224 223 223 227 226 223 224 232 234 234 254 241 240 242 246 252 256 259 264 268 273 276 280 282 285 288 287 286 286 286 289 292 291 294 301 304 307 308 309 314 317 319
224 227 230 233 233 229 228 230 234 240 243 244 242 243 247 253 256 260 263 266 271 275 278 280 282 283 284 286 285 281 284 288 285 284 296 300 302 303 305 308 313 315 314
229 233 233 231 230 227 227 237 243 240 240 244 245 248 252 258 263 266 268 271 273 275 277 279 281 282 283 284 279 277 270 272 274 287 295 294 297 301 304 307 310 311 310
217 218 219 218 223 230 235 240 240 238 239 242 246 252 258 264 269 272 271 269 269 271 276 281 284 285 285 286 274 266 262 269 278 284 294 292 294 297 301 305 305 309 309
223 223 223 225 228 230 230 230 232 234 239 245 250 257 264 268 268 267 269 272 272 273 275 277 278 277 275 275 274 271 269 275 280 288 295 291 291 296 299 303 308 315 314
206 210 212 215 216 217 217 222 228 234 240 246 252 255 260 266 272 273 274 273 272 273 276 277 277 278 279 279 278 276 275 278 276 290 292 289 289 293 297 302 307 314 318
201 201 204 207 208 212 218 225 231 238 245 252 258 263 267 270 270 272 276 282 284 289 289 290 292 291 285 282 278 275 269 269 272 286 288 283 286 290 295 299 306 313 319
209 213 214 215 219 225 230 236 241 246 252 258 262 267 274 276 277 276 273 273 277 269 263 264 266 273 282 288 289 285 271 268 278 285 286 280 282 287 291 297 304 312 318
224 224 226 229 231 234 238 242 247 252 257 260 262 264 268 276 278 277 278 279 282 279 276 274 272 272 274 280 283 282 278 276 277 284 282 277 278 282 286 291 300 311 320
233 234 234 234 235 239 242 246 246 248 253 261 268 273 276 277 279 282 286 290 291 292 291 288 284 282 282 280 274 275 273 274 278 282 277 274 274 276 279 284 295 306 317
233 233 234 236 237 238 242 247 253 261 267 270 275 281 284 284 288 292 293 294 296 297 298 298 294 289 289 287 282 277 273 273 276 275 272 271 270 271 274 279 290 301 316
232 230 230 230 231 236 243 251 258 264 271 278 285 290 290 294 299 299 301 301 301 303 304 303 300 293 284 278 281 288 283 273 268 268 269 268 266 266 265 272 284 291 308
225 226 227 228 234 241 247 253 259 267 275 282 287 290 291 293 294 295 297 300 302 304 305 303 303 301 298 290 287 285 279 273 271 270 268 266 264 263 262 265 275 280 293
226 227 230 232 236 241 247 256 264 272 279 281 282 282 284 287 291 296 300 302 303 301 299 297 297 298 296 294 288 283 279 277 274 269 267 263 262 261 260 260 269 272 279
224 227 229 234 241 247 253 260 267 269 270 273 276 280 283 289 293 295 296 299 301 301 300 299 297 297 297 294 289 284 281 279 276 273 266 264 263 258 259 258 264 269 275
225 230 236 241 246 251 254 257 262 266 269 273 276 281 286 291 292 294 297 298 299 299 302 302 300 297 295 293 291 287 282 278 276 272 270 269 265 260 257 262 260 265 267
234 239 243 244 247 249 252 255 258 261 265 271 277 283 287 289 294 298 300 301 303 303 302 303 299 297 296 295 291 286 282 279 275 272 271 267 264 261 261 262 266 267 269
Wind_Speed_850mb
80 78 80 83 78 72 66 60 54 50 45 39 32 27 22 16 11 6 3 2 3 4 7 11 15 19 23 27 32 35 38 44 56 67 68 73 75 78 81 85 89 89 85
85 83 83 84 81 75 68 61 57 52 47 40 35 31 25 20 16 10 5 3 4 5 8 12 16 20 26 30 35 38 42 46 53 64 68 73 74 79 84 88 90 92 94
87 86 86 85 82 76 68 63 59 54 48 45 39 34 29 23 18 13 9 8 8 10 13 16 19 25 30 34 38 42 46 48 50 59 67 69 75 80 86 89 94 96 95
88 88 88 87 83 78 72 67 62 56 51 46 41 38 32 27 22 17 15 14 14 17 19 23 26 32 35 38 42 46 49 49 51 56 63 69 75 80 83 87 98 95 100
89 90 89 85 82 77 73 68 62 57 52 48 45 42 37 32 25 21 22 21 22 25 27 31 33 37 40 44 47 49 50 50 52 56 61 66 74 79 79 81 88 97 99
91 90 88 85 81 78 73 68 63 59 56 52 48 44 40 35 29 25 28 28 30 33 36 37 38 43 44 47 50 51 51 52 53 56 56 63 70 70 71 76 78 95 107
96 93 89 85 82 79 74 69 66 62 58 53 50 49 44 39 33 30 33 34 35 39 40 41 46 47 48 51 52 53 54 53 53 49 55 59 67 61 66 76 79 84 93
95 92 88 86 84 79 74 72 68 63 56 53 51 55 49 42 39 36 39 37 39 40 43 47 51 52 52 55 57 58 58 57 55 55 56 63 56 55 61 65 73 80 87
96 94 90 86 82 79 79 72 64 61 60 60 61 60 52 45 43 42 44 44 42 43 47 51 54 57 55 56 62 64 63 62 58 57 60 61 55 55 55 63 66 74 85
91 88 85 81 79 83 76 67 63 61 67 64 67 62 55 49 47 49 50 53 53 51 52 55 57 60 60 60 63 62 65 63 61 69 69 64 58 56 53 53 58 66 70
70 74 80 79 81 74 69 65 77 65 64 70 65 61 56 54 54 54 56 61 60 58 60 63 63 59 63 64 62 60 64 59 64 69 73 67 62 58 55 53 51 57 64
49 51 53 65 71 67 75 74 61 64 71 65 64 60 58 61 60 60 60 60 60 65 69 69 67 64 67 68 58 58 51 60 71 74 75 69 63 60 57 55 54 55 57
31 38 48 61 70 67 60 60 58 61 63 62 59 59 59 61 61 59 58 58 61 65 69 73 73 72 69 62 52 54 61 71 77 73 71 66 61 58 56 56 56 55 60
40 45 49 52 53 53 54 53 54 54 53 53 54 55 56 58 59 58 59 61 62 63 66 69 69 67 67 64 69 68 69 69 68 68 67 65 62 57 54 53 59 57 62
34 37 41 44 44 43 44 43 43 44 46 48 50 54 58 60 55 58 59 58 59 60 63 70 71 69 71 71 68 70 68 69 69 64 64 65 62 56 53 50 53 54 54
34 36 37 38 39 40 40 41 42 44 47 50 52 53 51 54 53 53 50 41 38 41 51 69 77 75 74 69 68 71 71 67 65 62 62 59 59 55 52 48 48 48 50
32 33 35 37 37 38 40 42 44 44 46 47 49 48 45 43 45 47 50 52 45 49 61 73 76 73 70 66 60 59 66 60 59 60 60 57 55 52 49 47 45 44 45
35 36 36 36 38 40 41 41 39 38 37 36 36 36 40 45 51 56 60 65 65 62 66 74 79 80 82 75 64 57 63 60 56 57 58 54 49 48 46 42 40 40 40
37 37 38 39 40 38 36 34 33 31 30 31 33 40 43 47 51 54 56 58 61 63 62 63 63 66 66 67 67 57 53 51 52 54 53 51 45 45 42 38 37 32 33
35 36 34 31 30 28 27 26 26 28 32 34 36 36 38 46 48 49 51 54 55 56 57 57 57 56 52 45 45 50 57 56 55 52 49 47 42 41 39 36 32 29 27
29 28 26 26 25 24 25 26 27 28 29 30 33 35 39 47 48 49 49 48 50 49 48 47 48 49 44 42 42 43 43 42 43 44 44 42 40 38 35 34 30 24 23
26 25 24 23 23 23 25 26 26 27 27 29 32 35 39 41 43 43 42 41 41 43 44 46 46 45 44 45 47 45 40 40 39 39 40 39 36 35 33 33 28 23 21
23 23 24 25 25 25 24 24 24 25 28 31 33 34 36 36 35 35 37 37 38 39 39 40 42 39 37 36 35 37 38 36 36 37 38 38 35 34 34 34 28 24 21
25 25 24 24 23 23 23 23 24 27 29 30 30 30 30 30 31 33 35 35 35 36 36 38 39 39 37 36 35 35 37 36 36 36 37 35 34 33 34 36 30 26 26
25 25 25 24 23 23 24 26 28 28 27 26 27 27 28 31 32 33 34 36 37 36 34 34 35 36 35 35 35 35 35 35 36 34 34 36 36 35 35 35 34 31 29
25 25 25 25 26 27 29 28 27 27 26 26 26 27 29 30 30 31 32 34 36 36 33 32 34 34 35 34 34 35 35 35 34 35 37 38 39 38 37 37 34 38 37
Wind_Direction_850mb
210 204 197 193 191 190 189 188 188 187 187 185 183 185 187 191 200 212 232 326 332 333 339 340 332 324 317 314 314 315 316 317 317 319 324 326 327 328 330 330 331 330 329
209 203 197 195 193 193 192 191 191 193 190 191 191 191 195 202 207 214 236 266 275 296 320 326 324 316 310 311 309 310 313 314 314 316 320 325 327 329 330 329 330 329 330
205 201 198 197 196 196 196 195 196 196 196 195 196 200 204 209 214 223 237 249 255 280 300 304 306 310 309 306 306 308 308 307 308 311 318 324 326 330 329 332 331 330 328
204 202 201 201 201 200 200 200 201 200 202 201 202 207 210 213 219 232 242 243 262 277 284 290 299 303 303 305 304 304 303 301 305 310 316 321 326 331 333 329 327 328 327
206 205 205 205 204 204 203 204 203 204 205 207 209 213 216 219 224 237 245 253 262 271 279 284 290 297 302 302 301 300 299 299 304 308 313 319 326 328 328 328 325 326 324
208 209 209 209 207 206 206 206 206 208 209 211 216 221 225 224 228 244 248 256 263 271 276 279 287 293 295 297 296 296 296 298 300 305 308 315 319 321 324 323 321 319 320
211 211 212 212 211 210 209 209 211 214 216 220 222 230 230 232 239 248 252 258 267 271 273 280 283 288 292 293 292 293 293 291 292 296 300 307 314 321 321 318 318 317 315
215 215 215 214 214 213 213 215 216 219 224 225 243 238 232 235 245 252 256 262 266 272 277 279 283 288 292 293 294 292 290 287 290 297 302 308 310 311 309 311 313 313 312
218 219 218 218 218 222 219 218 222 226 232 238 242 236 238 241 249 254 257 262 268 273 276 278 283 287 292 291 290 291 290 290 293 293 293 298 301 309 310 310 314 315 318
223 224 223 223 227 226 223 224 232 234 234 254 241 240 242 246 252 256 259 264 268 273 276 280 282 285 288 287 286 286 286 289 292 291 294 301 304 307 308 309 314 317 319
224 227 230 233 233 229 228 230 234 240 243 244 242 243 247 253 256 260 263 266 271 275 278 280 282 283 284 286 285 281 284 288 285 284 296 300 302 303 305 308 313 315 314
229 233 233 231 230 227 227 237 243 240 240 244 245 248 252 258 263 266 268 271 273 275 277 279 281 282 283 284 279 277 270 272 274 287 295 294 297 301 304 307 310 311 310
217 218 219 218 223 230 235 240 240 238 239 242 246 252 258 264 269 272 271 269 269 271 276 281 284 285 285 286 274 266 262 269 278 284 294 292 294 297 301 305 305 309 309
223 223 223 225 228 230 230 230 232 234 239 245 250 257 264 268 268 267 269 272 272 273 275 277 278 277 275 275 274 271 269 275 280 288 295 291 291 296 299 303 308 315 314
206 210 212 215 216 217 217 222 228 234 240 246 252 255 260 266 272 273 274 273 272 273 276 277 277 278 279 279 278 276 275 278 276 290 292 289 289 293 297 302 307 314 318
201 201 204 207 208 212 218 225 231 238 245 252 258 263 267 270 270 272 276 282 284 289 289 290 292 291 285 282 278 275 269 269 272 286 288 283 286 290 295 299 306 313 319
209 213 214 215 219 225 230 236 241 246 252 258 262 267 274 276 277 276 273 273 277 269 263 264 266 273 282 288 289 285 271 268 278 285 286 280 282 287 291 297 304 312 318
224 224 226 229 231 234 238 242 247 252 257 260 262 264 268 276 278 277 278 279 282 279 276 274 272 272 274 280 283 282 278 276 277 284 282 277 278 282 286 291 300 311 320
233 234 234 234 235 239 242 246 246 248 253 261 268 273 276 277 279 282 286 290 291 292 291 288 284 282 282 280 274 275 273 274 278 282 277 274 274 276 279 284 295 306 317
233 233 234 236 237 238 242 247 253 261 267 270 275 281 284 284 288 292 293 294 296 297 298 298 294 289 289 287 282 277 273 273 276 275 272 271 270 271 274 279 290 301 316
232 230 230 230 231 236 243 251 258 264 271 278 285 290 290 294 299 299 301 301 301 303 304 303 300 293 284 278 281 288 283 273 268 268 269 268 266 266 265 272 284 291 308
225 226 227 228 234 241 247 253 259 267 275 282 287 290 291 293 294 295 297 300 302 304 305 303 303 301 298 290 287 285 279 273 271 270 268 266 264 263 262 265 275 280 293
226 227 230 232 236 241 247 256 264 272 279 281 282 282 284 287 291 296 300 302 303 301 299 297 297 298 296 294 288 283 279 277 274 269 267 263 262 261 260 260 269 272 279
224 227 229 234 241 247 253 260 267 269 270 273 276 280 283 289 293 295 296 299 301 301 300 299 297 297 297 294 289 284 281 279 276 273 266 264 263 258 259 258 264 269 275
225 230 236 241 246 251 254 257 262 266 269 273 276 281 286 291 292 294 297 298 299 299 302 302 300 297 295 293 291 287 282 278 276 272 270 269 265 260 257 262 260 265 267
234 239 243 244 247 249 252 255 258 261 265 271 277 283 287 289 294 298 300 301 303 303 302 303 299 297 296 295 291 286 282 279 275 272 271 267 264 261 261 262 266 267 269